timestamp,surface_pressure_avg,surface_temp_avg,battery_voltage,lat,long
2021-05-13 00:09:01+00:00,365.5496,4.64,13.05,47.84626,-54.09684
2021-05-13 00:19:00+00:00,365.5146,4.6,12.73,47.84626,-54.09684
2021-05-13 00:29:00+00:00,365.3229,4.6,12.73,47.84626,-54.09684
2021-05-13 00:39:00+00:00,363.8879,4.6,12.73,47.84626,-54.09684
2021-05-13 00:49:00+00:00,362.5513,4.6,12.73,47.84626,-54.09684
2021-05-13 00:59:00+00:00,361.4379,4.6,12.73,47.84626,-54.09684
2021-05-13 01:09:00+00:00,360.07300000000015,4.63,12.73,47.84626,-54.09684
2021-05-13 01:19:01+00:00,355.5646,4.68,12.65,47.84626,-54.09684
2021-05-13 01:29:01+00:00,354.0746,4.69,12.65,47.84626,-54.09684
2021-05-13 01:39:01+00:00,354.61300000000006,4.7,12.65,47.84626,-54.09684
2021-05-13 01:49:01+00:00,350.8129,4.7,12.65,47.84626,-54.09684
2021-05-13 01:59:01+00:00,345.338,4.8,12.65,47.84626,-54.09684
2021-05-13 02:09:01+00:00,341.0579,4.8,12.65,47.84626,-54.09684
2021-05-13 02:19:00+00:00,335.4796,4.8,12.65,47.84626,-54.09684
2021-05-13 02:29:00+00:00,327.0013,4.88,12.65,47.84626,-54.09684
2021-05-13 02:39:00+00:00,320.3163,4.9,12.65,47.84626,-54.09684
2021-05-13 02:49:00+00:00,316.2531,4.9,12.65,47.84626,-54.09684
2021-05-13 02:59:00+00:00,309.623,4.95,12.65,47.84626,-54.09684
2021-05-13 03:09:00+00:00,303.733,5.0,12.65,47.84626,-54.09684
2021-05-13 03:19:00+00:00,298.0081,5.07,12.65,47.84626,-54.09684
2021-05-13 03:29:00+00:00,288.868,5.22,12.65,47.84626,-54.09684
2021-05-13 03:39:00+00:00,278.9714,5.37,12.65,47.84626,-54.09684
2021-05-13 03:49:00+00:00,273.1347,5.4,12.65,47.84626,-54.09684
2021-05-13 03:59:00+00:00,264.5814,5.46,12.65,47.84626,-54.09684
2021-05-13 04:09:00+00:00,253.2681,5.49,12.65,47.84626,-54.09684
2021-05-13 04:19:01+00:00,246.2964,5.5,12.65,47.84626,-54.09684
2021-05-13 04:29:01+00:00,240.768,5.45,12.65,47.84626,-54.09684
2021-05-13 04:39:01+00:00,233.3765,5.4,12.65,47.84626,-54.09684
2021-05-13 04:49:01+00:00,226.2064,5.4,12.65,47.84626,-54.09684
2021-05-13 04:59:01+00:00,221.3231,5.4,12.65,47.84626,-54.09684
2021-05-13 05:09:01+00:00,214.6898,5.4,12.65,47.84626,-54.09684
2021-05-13 05:19:01+00:00,207.7381,5.4,12.65,47.84626,-54.09684
2021-05-13 05:29:01+00:00,201.7564,5.49,12.65,47.84626,-54.09684
2021-05-13 05:39:01+00:00,194.4498,5.5,12.65,47.84626,-54.09684
2021-05-13 05:49:01+00:00,188.9148,5.5,12.65,47.84626,-54.09684
2021-05-13 05:59:01+00:00,183.5398,5.5,12.65,47.84626,-54.09684
2021-05-13 06:09:01+00:00,179.8065,5.5,12.65,47.84626,-54.09684
2021-05-13 06:19:01+00:00,181.3298,5.5,12.57,47.84626,-54.09684
2021-05-13 06:29:01+00:00,182.0732,5.5,12.57,47.84626,-54.09684
2021-05-13 06:39:01+00:00,180.2348,5.5,12.57,47.84626,-54.09684
2021-05-13 06:49:01+00:00,180.6482,5.5,12.57,47.84626,-54.09684
2021-05-13 06:59:01+00:00,183.6581,5.5,12.57,47.84626,-54.09684
2021-05-13 07:09:01+00:00,185.5365,5.5,12.57,47.84626,-54.09684
2021-05-13 07:19:01+00:00,188.1598,5.5,12.57,47.84626,-54.09684
2021-05-13 07:29:01+00:00,193.4865,5.43,12.57,47.84626,-54.09684
2021-05-13 07:39:01+00:00,197.4248,5.4,12.57,47.84626,-54.09684
2021-05-13 07:49:01+00:00,202.7697,5.4,12.57,47.84626,-54.09684
2021-05-13 07:59:01+00:00,210.1598,5.4,12.57,47.84626,-54.09684
2021-05-13 08:09:01+00:00,215.0748,5.39,12.57,47.84626,-54.09684
2021-05-13 08:19:01+00:00,218.1514,5.3,12.57,47.84626,-54.09684
2021-05-13 08:29:01+00:00,221.7297,5.3,12.57,47.84626,-54.09684
2021-05-13 08:39:01+00:00,225.2065,5.3,12.57,47.84626,-54.09684
2021-05-13 08:49:01+00:00,230.0764,5.3,12.57,47.84626,-54.09684
2021-05-13 08:59:01+00:00,234.3431,5.29,12.57,47.84626,-54.09684
2021-05-13 09:09:01+00:00,238.0614,5.27,12.57,47.84626,-54.09684
2021-05-13 09:19:00+00:00,240.7498,5.25,12.65,47.84626,-54.09684
2021-05-13 09:29:00+00:00,245.4581,5.24,12.65,47.84626,-54.09684
2021-05-13 09:39:00+00:00,253.1647,5.2,12.65,47.84626,-54.09684
2021-05-13 09:49:00+00:00,257.5447,5.2,12.65,47.84626,-54.09684
2021-05-13 09:59:00+00:00,259.8864,5.2,12.65,47.84626,-54.09684
2021-05-13 10:09:00+00:00,265.2181,5.2,12.65,47.84626,-54.09684
2021-05-13 10:19:01+00:00,275.6014,5.2,13.05,47.84626,-54.09684
2021-05-13 10:29:01+00:00,278.6831,5.2,13.05,47.84626,-54.09684
2021-05-13 10:39:01+00:00,282.1298,5.2,13.05,47.84626,-54.09684
2021-05-13 10:49:01+00:00,289.8881,5.2,13.05,47.84626,-54.09684
2021-05-13 10:59:01+00:00,299.008,5.2,13.05,47.84626,-54.09684
2021-05-13 11:09:01+00:00,301.6964,5.2,13.05,47.84626,-54.09684
2021-05-13 11:19:00+00:00,306.6863,5.2,13.68,47.84626,-54.09684
2021-05-13 11:29:00+00:00,314.6613,5.15,13.68,47.84626,-54.09684
2021-05-13 11:39:00+00:00,322.9496,5.09,13.68,47.84626,-54.09684
2021-05-13 11:49:00+00:00,323.8431,5.0,13.68,47.84626,-54.09684
2021-05-13 11:59:00+00:00,327.2929,5.0,13.68,47.84626,-54.09684
2021-05-13 12:09:00+00:00,331.6280000000001,5.0,13.68,47.84626,-54.09684
2021-05-13 12:19:01+00:00,332.7946,4.99,14.24,47.84626,-54.09684
2021-05-13 12:29:01+00:00,330.6047,5.0,14.24,47.84626,-54.09684
2021-05-13 12:39:01+00:00,329.0146,5.05,14.24,47.84626,-54.09684
2021-05-13 12:49:01+00:00,331.8180000000001,5.1,14.24,47.84626,-54.09684
2021-05-13 12:59:01+00:00,332.1963,5.1,14.24,47.84626,-54.09684
2021-05-13 13:09:01+00:00,330.1514,5.12,14.24,47.84626,-54.09684
2021-05-13 13:19:01+00:00,328.4095,5.1,14.4,47.84626,-54.09684
2021-05-13 13:29:01+00:00,326.7313,5.1,14.4,47.84626,-54.09684
2021-05-13 13:39:01+00:00,325.5264,5.14,14.4,47.84626,-54.09684
2021-05-13 13:49:01+00:00,320.2463,5.1,14.4,47.84626,-54.09684
2021-05-13 13:59:01+00:00,315.4113,5.05,14.4,47.84626,-54.09684
2021-05-13 14:09:01+00:00,313.0097,5.0,14.4,47.84626,-54.09684
2021-05-13 14:19:00+00:00,310.848,5.0,14.48,47.84626,-54.09684
2021-05-13 14:29:00+00:00,304.1497,4.9,14.48,47.84626,-54.09684
2021-05-13 14:39:00+00:00,300.8447,4.96,14.48,47.84626,-54.09684
2021-05-13 14:49:00+00:00,301.9764,5.0,14.48,47.84626,-54.09684
2021-05-13 14:59:00+00:00,296.7847,5.0,14.48,47.84626,-54.09684
2021-05-13 15:09:00+00:00,289.7597,5.0,14.48,47.84626,-54.09684
2021-05-13 15:19:01+00:00,288.9964,5.0,14.16,47.84626,-54.09684
2021-05-13 15:29:01+00:00,285.773,5.05,14.16,47.84626,-54.09684
2021-05-13 15:39:01+00:00,276.0831,5.0,14.16,47.84626,-54.09684
2021-05-13 15:49:01+00:00,270.5747,5.0,14.16,47.84626,-54.09684
2021-05-13 15:59:01+00:00,267.3031,5.04,14.16,47.84626,-54.09684
2021-05-13 16:09:01+00:00,258.5914,5.06,14.16,47.84626,-54.09684
2021-05-13 16:19:01+00:00,250.2598,5.05,14.16,47.84626,-54.09684
2021-05-13 16:29:01+00:00,248.433,5.01,14.16,47.84626,-54.09684
2021-05-13 16:39:01+00:00,244.6398,5.0,14.16,47.84626,-54.09684
2021-05-13 16:49:01+00:00,233.2364,5.0,14.16,47.84626,-54.09684
2021-05-13 16:59:01+00:00,225.7814,5.0,14.16,47.84626,-54.09684
2021-05-13 17:09:01+00:00,223.3464,4.99,14.16,47.84626,-54.09684
2021-05-13 17:19:01+00:00,216.1748,4.93,14.24,47.84626,-54.09684
2021-05-13 17:29:01+00:00,208.3048,4.9,14.24,47.84626,-54.09684
2021-05-13 17:39:01+00:00,205.218,4.9,14.24,47.84626,-54.09684
2021-05-13 17:49:01+00:00,200.3431,4.9,14.24,47.84626,-54.09684
2021-05-13 17:59:01+00:00,193.5865,4.9,14.24,47.84626,-54.09684
2021-05-13 18:09:01+00:00,192.4448,4.89,14.24,47.84626,-54.09684
2021-05-13 18:19:01+00:00,192.5781,4.87,14.08,47.84626,-54.09684
2021-05-13 18:29:01+00:00,187.9681,4.83,14.08,47.84626,-54.09684
2021-05-13 18:39:01+00:00,189.0481,4.8,14.08,47.84626,-54.09684
2021-05-13 18:49:01+00:00,193.8281,4.8,14.08,47.84626,-54.09684
2021-05-13 18:59:01+00:00,192.5981,4.8,14.08,47.84626,-54.09684
2021-05-13 19:09:01+00:00,193.6398,4.8,14.08,47.84626,-54.09684
2021-05-13 19:19:01+00:00,202.2731,4.8,14.0,47.84626,-54.09684
2021-05-13 19:29:01+00:00,207.6114,4.8,14.0,47.84626,-54.09684
2021-05-13 19:39:01+00:00,207.2264,4.8,14.0,47.84626,-54.09684
2021-05-13 19:49:01+00:00,211.8781,4.8,14.0,47.84626,-54.09684
2021-05-13 19:59:01+00:00,218.8831,4.8,14.0,47.84626,-54.09684
2021-05-13 20:09:01+00:00,223.0715,4.8,14.0,47.84626,-54.09684
2021-05-13 20:19:01+00:00,226.9781,4.8,14.0,47.84626,-54.09684
2021-05-13 20:29:01+00:00,234.5281,4.8,14.0,47.84626,-54.09684
2021-05-13 20:39:01+00:00,240.4998,4.8,14.0,47.84626,-54.09684
2021-05-13 20:49:01+00:00,244.0448,4.8,14.0,47.84626,-54.09684
2021-05-13 20:59:01+00:00,249.9431,4.8,14.0,47.84626,-54.09684
2021-05-13 21:09:01+00:00,255.7681,4.8,14.0,47.84626,-54.09684
2021-05-13 21:19:01+00:00,258.7997,4.8,13.84,47.84626,-54.09684
2021-05-13 21:29:01+00:00,262.2914,4.8,13.84,47.84626,-54.09684
2021-05-13 21:39:01+00:00,268.8414,4.81,13.84,47.84626,-54.09684
2021-05-13 21:49:01+00:00,273.1598,4.83,13.84,47.84626,-54.09684
2021-05-13 21:59:01+00:00,275.3231,4.9,13.84,47.84626,-54.09684
2021-05-13 22:09:01+00:00,279.5464,4.9,13.84,47.84626,-54.09684
2021-05-13 22:19:01+00:00,287.108,4.9,13.6,47.84626,-54.09684
2021-05-13 22:29:01+00:00,294.1697,4.9,13.6,47.84626,-54.09684
2021-05-13 22:39:01+00:00,299.9047,4.9,13.6,47.84626,-54.09684
2021-05-13 22:49:01+00:00,307.0347,4.9,13.6,47.84626,-54.09684
2021-05-13 22:59:01+00:00,315.173,4.9,13.6,47.84626,-54.09684
2021-05-13 23:09:01+00:00,321.1763,4.9,13.6,47.84626,-54.09684
2021-05-13 23:19:01+00:00,326.2463,4.9,13.21,47.84626,-54.09684
2021-05-13 23:29:01+00:00,332.8214,4.9,13.21,47.84626,-54.09684
2021-05-13 23:39:01+00:00,338.7913,4.9,13.21,47.84626,-54.09684
2021-05-13 23:49:01+00:00,341.7913,4.9,13.21,47.84626,-54.09684
2021-05-13 23:59:01+00:00,345.6179,4.9,13.21,47.84626,-54.09684
